Wind_Speed
3 3 3 3 3 2 2 2 3 2 1 1 1 1 1 0 1 1 1 1 1 2 2 2 3 3 3 3 3 3 3 4 4 5 5 5 5 5 5 6 6 7 7
3 3 3 3 3 3 2 2 3 3 2 1 1 1 2 2 2 2 2 2 3 3 3 3 4 4 4 4 4 5 5 5 5 6 6 6 6 6 7 7 7 7 8
3 3 3 3 3 3 3 2 3 3 2 2 2 3 3 3 3 4 4 4 3 4 4 4 5 5 5 5 5 6 6 6 6 6 6 7 7 7 7 8 8 9 9
2 3 4 4 4 4 4 3 3 3 3 3 4 4 4 4 5 5 5 4 5 5 5 5 6 6 7 6 7 7 7 7 7 7 7 8 8 8 9 9 10 10 10
2 3 4 4 4 4 4 4 4 5 5 5 5 5 5 5 6 6 6 6 6 6 7 7 8 8 8 8 8 8 9 8 8 9 9 9 10 10 10 10 11 11 12
1 2 3 3 4 5 5 6 6 6 7 7 7 7 6 6 7 7 7 8 8 8 9 9 10 10 10 10 10 10 10 10 10 11 11 11 11 11 11 12 12 12 13
1 2 3 4 4 5 5 6 6 6 7 7 8 8 8 8 8 8 9 9 10 10 10 10 11 11 11 12 12 12 12 12 12 12 12 13 13 13 13 13 13 14 14
2 3 3 4 4 5 6 6 6 7 7 8 9 9 9 9 10 10 11 11 12 12 12 12 12 13 13 13 13 13 14 14 14 15 15 15 15 15 15 15 15 15 15
3 4 4 4 5 6 6 6 7 7 8 9 10 10 10 11 11 12 13 13 14 14 14 14 14 14 14 14 14 15 15 16 16 17 17 17 17 16 16 16 16 17 17
3 4 5 5 6 6 6 7 7 8 9 9 9 10 11 12 12 12 13 14 14 15 15 15 15 15 15 16 16 17 17 17 17 18 18 18 19 18 18 18 19 19 19
4 4 5 5 6 7 7 8 9 10 10 10 10 11 12 13 12 13 14 14 15 15 15 15 16 16 16 17 17 18 18 19 18 18 19 19 19 19 19 20 20 20 20
5 4 4 5 6 7 8 9 9 10 10 11 12 13 13 14 14 14 15 15 16 16 16 16 16 16 17 17 17 18 19 19 19 19 20 20 20 20 20 20 20 20 20
6 5 5 6 6 7 8 8 8 9 11 12 12 13 14 14 15 15 15 15 16 16 16 17 17 18 18 18 19 19 19 19 20 20 21 21 21 21 22 22 22 22 23
6 6 6 7 8 9 9 9 9 10 11 12 13 14 14 15 16 16 16 17 17 17 18 18 19 19 19 19 19 19 20 20 20 20 21 21 22 22 23 24 24 24 25
6 7 7 8 9 9 10 10 11 12 12 13 14 15 16 16 17 17 18 18 19 19 19 20 20 20 20 20 20 20 20 20 21 21 21 22 23 23 24 25 25 26 26
8 8 9 10 11 11 11 11 12 13 14 15 15 16 16 17 17 18 19 20 20 20 21 21 22 22 22 22 22 21 22 22 22 22 23 23 24 25 25 25 25 26 27
10 11 11 12 12 12 13 13 14 15 15 15 15 16 17 17 18 19 20 20 21 21 21 22 22 22 23 23 23 23 23 22 23 23 24 25 25 26 26 26 26 27 27
11 12 13 14 14 14 14 15 15 16 16 16 17 17 18 18 19 20 20 21 22 23 23 23 23 24 24 24 24 24 24 24 24 25 26 26 26 26 27 27 27 27 28
12 13 14 15 15 16 16 16 17 17 18 18 18 18 19 20 20 21 21 22 23 23 24 24 24 25 24 24 25 25 25 25 25 26 26 27 27 27 27 27 28 29 28
14 14 14 15 17 18 18 18 19 20 20 20 20 20 21 21 21 22 22 22 23 24 25 25 24 24 24 25 25 25 26 26 26 27 27 28 28 28 28 29 29 29 29
16 16 16 17 18 19 20 21 21 21 22 22 22 22 22 22 22 23 23 23 23 23 24 24 24 24 25 25 26 26 26 26 27 27 28 28 29 29 29 30 30 30 31
18 18 18 19 19 20 20 21 22 23 23 24 23 22 22 22 22 23 23 23 23 24 24 24 25 25 26 26 27 27 27 27 27 28 28 29 29 30 31 31 31 31 32
19 19 19 20 21 22 22 23 23 23 23 23 23 23 22 22 23 23 24 24 24 25 26 26 26 26 27 27 28 28 28 28 28 29 30 30 31 31 31 31 32 32 33
20 20 21 22 22 23 23 24 24 24 23 23 23 23 23 24 24 24 25 25 25 26 26 27 27 27 28 29 28 28 29 29 29 30 30 29 30 31 31 32 33 33 34
21 22 23 23 24 24 24 24 25 24 24 24 24 24 24 25 25 26 26 27 27 27 27 28 29 28 29 29 29 30 30 30 30 30 31 31 31 32 33 33 34 34 35
23 24 25 25 25 25 25 25 26 25 25 24 24 24 25 26 26 26 27 27 27 27 28 28 28 28 29 29 29 30 30 30 30 31 32 32 33 33 33 34 35 35 35
Wind_Direction
145 151 155 161 160 151 149 161 167 164 150 148 168 202 249 267 223 246 275 292 302 311 304 297 291 295 295 293 299 315 314 310 305 301 299 293 289 283 276 272 274 273 272
163 173 183 193 188 185 183 184 192 199 209 214 218 243 266 266 250 262 281 288 287 297 303 297 294 293 292 291 298 302 304 301 299 297 295 296 291 284 281 278 276 279 278
171 186 193 201 202 208 208 212 213 214 230 249 258 263 268 272 268 270 278 284 282 285 293 294 290 292 290 291 296 300 302 300 297 294 293 293 290 285 283 281 279 279 277
186 199 207 213 219 222 222 222 219 227 239 250 253 259 263 273 269 269 275 280 283 284 284 286 288 289 289 288 293 296 295 294 295 294 291 290 286 284 283 281 278 278 277
230 222 228 224 226 230 232 232 234 240 245 253 256 256 261 271 264 264 269 276 282 285 286 284 286 286 287 284 287 288 289 289 290 293 290 289 287 286 284 282 280 278 278
236 230 238 240 236 238 240 241 244 244 246 253 257 256 262 266 266 266 270 276 278 282 285 285 286 285 283 282 281 283 282 283 286 288 288 289 289 288 286 284 282 280 280
265 243 241 242 238 241 243 245 247 250 253 256 259 262 263 264 267 270 272 274 277 280 283 283 283 285 282 281 281 281 281 282 283 285 287 285 285 287 286 285 283 282 281
281 262 252 248 243 241 243 248 251 256 262 263 265 268 268 267 269 272 274 276 277 280 281 281 282 285 284 282 279 280 282 282 284 285 286 284 283 284 284 284 282 281 280
273 264 259 255 247 243 245 252 256 261 265 266 264 268 272 274 274 274 276 277 278 279 280 282 283 284 285 283 281 280 282 281 283 285 285 283 281 282 283 283 283 283 282
280 266 260 262 261 259 255 261 262 265 268 270 268 269 271 273 277 278 279 279 279 279 281 282 283 283 284 284 282 283 282 284 283 282 282 282 281 281 281 281 280 282 281
287 271 264 264 265 265 268 269 268 268 271 273 275 274 273 273 277 280 281 281 281 281 282 282 282 282 284 284 283 283 284 284 283 283 282 282 281 280 280 280 280 281 280
287 279 276 278 277 277 275 273 277 276 276 277 278 277 276 275 277 278 279 281 282 281 282 283 283 282 283 284 284 285 285 283 281 280 281 281 281 280 281 282 281 280 280
288 285 288 291 289 288 285 281 282 282 282 282 281 279 278 277 279 279 279 280 281 283 284 285 284 284 285 284 285 285 285 286 284 280 279 280 280 281 282 282 281 281 280
303 296 295 297 295 293 286 280 282 285 286 286 284 281 278 278 279 279 279 280 279 281 283 284 286 286 287 286 285 285 286 285 286 283 280 280 280 281 282 283 281 281 280
308 301 300 301 302 297 290 286 287 286 286 286 285 284 282 279 279 278 278 278 279 279 280 283 285 286 287 285 284 284 285 286 286 284 282 282 282 283 285 285 282 280 280
310 302 299 301 299 300 299 296 296 293 290 290 286 283 284 282 280 279 278 280 281 280 279 280 282 283 285 284 284 284 284 284 284 284 284 283 283 284 285 285 284 284 283
313 306 301 300 300 298 299 299 298 296 295 294 290 286 285 287 285 281 280 280 281 281 281 280 280 282 283 282 282 282 283 283 283 283 283 284 283 283 283 283 284 284 284
308 305 300 298 298 298 297 297 298 297 296 295 292 289 287 285 287 285 282 281 282 282 281 280 280 281 282 281 280 282 283 283 283 282 282 282 282 283 283 283 284 283 283
303 301 299 298 298 298 297 296 297 298 297 296 293 291 289 286 286 287 285 284 282 282 282 281 281 281 282 281 280 281 282 283 283 282 282 283 283 283 283 282 283 282 282
300 298 298 297 299 300 300 297 295 296 295 295 293 290 288 288 287 286 286 286 285 284 284 283 282 281 282 281 281 281 282 283 283 283 283 284 284 284 283 282 282 281 281
301 297 294 296 297 298 298 297 296 295 295 295 294 291 289 288 287 287 287 286 286 286 287 285 283 282 284 284 283 282 283 283 284 284 284 285 284 283 282 283 283 283 283
298 297 296 297 300 299 299 297 296 296 295 295 294 292 291 290 289 289 288 285 285 287 287 286 284 284 285 285 285 283 283 284 284 284 283 283 283 283 284 284 284 284 285
296 298 297 298 300 301 300 299 298 299 298 298 295 293 293 292 290 289 290 288 287 287 286 286 285 285 285 284 285 284 284 285 284 284 284 284 284 284 284 284 284 284 285
294 297 299 298 299 301 301 300 298 297 296 296 294 293 293 292 290 288 289 289 288 287 286 286 286 285 285 284 284 284 284 284 284 285 285 285 285 286 286 286 286 286 286
300 299 300 300 299 300 300 299 299 297 296 296 295 293 292 291 290 289 289 290 288 288 287 287 286 286 287 286 286 285 285 284 284 285 285 286 287 287 288 288 288 288 287
300 300 298 301 301 300 298 296 296 295 294 294 295 293 293 293 292 292 291 291 290 288 288 288 288 287 287 288 288 286 286 285 287 287 287 288 289 289 289 289 289 288 287
Height
5889 5890 5891 5892 5892 5893 5894 5895 5895 5896 5896 5897 5898 5898 5899 5899 5899 5900 5900 5900 5900 5901 5901 5901 5901 5901 5901 5901 5901 5901 5900 5900 5900 5900 5900 5900 5900 5900 5900 5900 5900 5900 5900
5889 5890 5891 5892 5893 5893 5894 5895 5895 5896 5897 5897 5898 5898 5899 5899 5899 5900 5900 5900 5900 5900 5900 5900 5900 5900 5900 5900 5900 5900 5900 5899 5899 5899 5899 5899 5899 5899 5899 5899 5899 5899 5899
5889 5890 5891 5892 5893 5893 5894 5895 5895 5896 5897 5897 5898 5898 5898 5899 5899 5899 5899 5899 5899 5899 5899 5899 5899 5899 5899 5899 5899 5899 5899 5898 5898 5898 5898 5897 5897 5897 5897 5897 5897 5897 5897
5890 5890 5891 5892 5893 5893 5894 5894 5895 5896 5896 5897 5897 5897 5898 5898 5898 5898 5898 5899 5899 5899 5899 5898 5898 5898 5898 5898 5898 5898 5897 5897 5897 5896 5896 5896 5895 5895 5895 5895 5895 5894 5894
5890 5890 5891 5891 5892 5892 5893 5894 5894 5895 5896 5896 5896 5897 5897 5897 5897 5897 5897 5898 5897 5897 5897 5897 5897 5897 5897 5896 5896 5896 5896 5895 5895 5894 5894 5894 5893 5893 5893 5892 5892 5892 5892
5890 5890 5890 5891 5891 5892 5892 5893 5894 5894 5895 5895 5895 5895 5896 5896 5896 5896 5896 5896 5896 5896 5896 5896 5895 5895 5895 5895 5894 5894 5894 5893 5893 5892 5892 5891 5891 5890 5890 5890 5889 5889 5888
5890 5890 5890 5890 5891 5891 5891 5892 5892 5893 5893 5894 5894 5894 5894 5894 5894 5894 5894 5894 5894 5894 5894 5893 5893 5893 5893 5892 5892 5892 5891 5891 5890 5889 5889 5889 5888 5888 5887 5887 5886 5886 5885
5889 5889 5889 5889 5889 5890 5890 5891 5891 5891 5892 5892 5892 5892 5892 5893 5892 5892 5892 5892 5892 5891 5891 5891 5891 5890 5890 5890 5889 5889 5888 5887 5887 5886 5886 5885 5885 5884 5884 5883 5883 5882 5882
5888 5888 5888 5888 5888 5889 5889 5889 5890 5890 5890 5890 5890 5891 5890 5890 5890 5890 5890 5889 5889 5889 5888 5888 5888 5887 5887 5886 5886 5886 5885 5884 5883 5883 5882 5882 5881 5881 5880 5879 5879 5878 5878
5887 5887 5887 5887 5887 5887 5887 5888 5888 5888 5888 5888 5888 5888 5888 5888 5888 5887 5887 5886 5886 5886 5885 5885 5884 5884 5883 5883 5882 5882 5881 5881 5880 5879 5878 5878 5877 5877 5876 5875 5875 5874 5873
5886 5886 5886 5886 5886 5886 5886 5886 5886 5886 5886 5886 5886 5886 5885 5885 5885 5884 5884 5884 5883 5882 5882 5881 5881 5880 5880 5879 5878 5878 5877 5876 5876 5875 5874 5873 5873 5872 5871 5871 5870 5869 5869
5886 5885 5885 5884 5884 5884 5884 5884 5884 5884 5884 5883 5883 5883 5882 5882 5882 5881 5881 5880 5880 5879 5878 5878 5877 5876 5876 5875 5874 5874 5873 5872 5871 5870 5870 5869 5868 5867 5867 5866 5865 5864 5864
5885 5885 5884 5883 5883 5882 5882 5882 5882 5881 5881 5881 5880 5880 5879 5879 5879 5878 5878 5877 5876 5875 5875 5874 5873 5872 5872 5871 5870 5869 5868 5867 5866 5865 5865 5864 5863 5863 5862 5861 5860 5859 5858
5884 5883 5883 5882 5881 5881 5880 5879 5879 5878 5878 5878 5877 5876 5876 5875 5875 5874 5874 5873 5873 5872 5871 5870 5869 5868 5867 5867 5866 5865 5864 5863 5861 5860 5860 5859 5858 5857 5856 5855 5854 5853 5853
5883 5882 5881 5880 5879 5879 5878 5877 5876 5875 5874 5874 5873 5873 5872 5871 5870 5870 5869 5869 5869 5868 5867 5866 5865 5863 5862 5862 5861 5860 5859 5857 5856 5855 5854 5854 5853 5852 5850 5849 5848 5847 5846
5881 5880 5879 5879 5878 5876 5875 5874 5873 5872 5871 5870 5869 5868 5868 5867 5866 5865 5865 5864 5864 5863 5862 5861 5860 5859 5857 5856 5855 5854 5853 5852 5851 5850 5849 5848 5847 5846 5844 5843 5842 5841 5840
5879 5878 5877 5876 5875 5874 5873 5871 5870 5869 5868 5866 5865 5864 5863 5862 5861 5860 5860 5859 5858 5858 5857 5856 5854 5853 5852 5851 5850 5848 5847 5846 5845 5844 5843 5842 5840 5839 5838 5837 5836 5834 5833
5876 5876 5875 5874 5873 5871 5870 5868 5867 5865 5864 5862 5861 5860 5858 5857 5856 5855 5854 5853 5853 5852 5851 5850 5849 5847 5846 5844 5843 5842 5841 5840 5839 5838 5837 5835 5834 5832 5831 5830 5829 5827 5826
5874 5873 5872 5870 5869 5868 5866 5865 5863 5862 5860 5858 5856 5855 5854 5852 5851 5850 5849 5848 5847 5845 5844 5843 5842 5841 5839 5838 5837 5836 5835 5834 5832 5831 5829 5828 5827 5825 5824 5823 5821 5820 5819
5871 5869 5868 5867 5865 5864 5862 5861 5859 5857 5855 5854 5852 5850 5849 5847 5846 5845 5844 5842 5841 5839 5838 5837 5835 5834 5833 5831 5830 5829 5828 5827 5825 5824 5822 5821 5819 5818 5817 5815 5814 5812 5811
5868 5866 5865 5863 5861 5859 5858 5856 5854 5852 5850 5848 5846 5845 5843 5842 5840 5839 5838 5837 5835 5834 5832 5830 5829 5828 5827 5825 5824 5822 5821 5819 5818 5816 5815 5813 5812 5810 5809 5807 5806 5804 5802
5864 5862 5860 5859 5857 5855 5853 5851 5849 5847 5845 5843 5841 5839 5838 5836 5834 5833 5832 5830 5829 5828 5826 5824 5823 5821 5820 5818 5817 5815 5813 5812 5810 5809 5807 5805 5804 5802 5800 5799 5797 5795 5793
5859 5858 5856 5854 5852 5850 5848 5845 5843 5841 5839 5837 5835 5833 5832 5830 5828 5827 5825 5823 5822 5821 5819 5818 5816 5815 5813 5811 5809 5808 5806 5804 5803 5801 5799 5797 5795 5793 5792 5790 5788 5786 5784
5854 5852 5851 5849 5847 5845 5842 5840 5837 5835 5833 5831 5829 5828 5826 5824 5822 5821 5819 5817 5815 5814 5812 5810 5809 5807 5805 5803 5802 5800 5798 5796 5794 5792 5790 5789 5787 5784 5782 5781 5779 5776 5774
5848 5846 5845 5843 5841 5838 5836 5833 5831 5829 5827 5825 5823 5821 5820 5818 5816 5814 5813 5811 5808 5806 5804 5803 5801 5799 5797 5795 5794 5792 5790 5788 5786 5784 5782 5780 5778 5776 5774 5771 5769 5766 5764
5843 5841 5839 5837 5834 5832 5829 5827 5824 5822 5820 5819 5816 5814 5813 5811 5809 5807 5806 5803 5801 5799 5797 5795 5793 5791 5789 5787 5785 5783 5781 5779 5777 5775 5773 5771 5768 5766 5764 5762 5759 5756 5754